Location: Prairie State College
(41.5244°N, 87.6382°W)
Time: 18:53:43
(UTC-05:00)

ISS - All Passes

Search period start: 19 September 2014 00:00
Search period end: 29 September 2014 00:00
Orbit: 414 x 417 km, 51.6° (Epoch: 19 September)

Date Brightness Start Highest point End Pass type
(mag) Time Alt. Az. Time Alt. Az. Time Alt. Az.
19 Sep - 03:01:40 10° SW 03:04:56 56° SE 03:08:12 10° ENE visible
19 Sep - 04:38:59 10° W 04:41:50 25° NNW 04:44:41 10° NE visible
19 Sep - 06:17:29 10° NW 06:19:25 14° N 06:21:20 10° NE daylight
19 Sep - 07:54:21 10° NW 07:57:02 22° NNE 07:59:43 10° ENE daylight
19 Sep - 09:30:44 10° WNW 09:34:04 77° SW 09:37:22 10° SE daylight
20 Sep - 02:13:14 10° SSW 02:16:12 31° SE 02:19:12 10° ENE night (unlit)
20 Sep - 03:49:47 10° W 03:52:53 35° NNW 03:55:59 10° NE visible
20 Sep - 05:28:16 10° NW 05:30:19 15° N 05:32:23 10° NNE visible
20 Sep - 07:05:38 10° NNW 07:08:01 18° NNE 07:10:23 10° ENE daylight
20 Sep - 08:41:56 10° NW 08:45:14 62° NNE 08:48:32 10° ESE daylight
20 Sep - 10:19:33 10° W 10:21:37 16° SW 10:23:41 10° S daylight
21 Sep - 01:25:10 10° S 01:27:31 18° SE 01:29:52 10° E night (unlit)
21 Sep - 03:00:41 10° WSW 03:03:57 54° NNW 03:07:14 10° NE visible
21 Sep - 04:38:55 10° NW 04:41:13 17° NNW 04:43:32 10° NNE visible
21 Sep - 06:16:48 10° NNW 06:18:55 16° N 06:21:01 10° NE daylight
21 Sep - 07:53:09 10° NW 07:56:19 39° NNE 07:59:28 10° E daylight
21 Sep - 09:30:04 10° WNW 09:32:55 27° SW 09:35:46 10° SSE daylight
22 Sep - 00:38:29 10° SE 00:38:50 10° SE 00:39:12 10° ESE night (unlit)
22 Sep - 02:11:43 10° SW 02:15:03 89° SE 02:18:23 10° NE night (unlit)
22 Sep - 03:49:31 10° WNW 03:52:07 21° NNW 03:54:43 10° NE visible
22 Sep - 05:27:49 10° NNW 05:29:45 15° N 05:31:42 10° NE visible
22 Sep - 07:04:23 10° NW 07:07:18 27° NNE 07:10:12 10° E daylight
22 Sep - 08:40:55 10° WNW 08:44:08 48° SW 08:47:21 10° SE daylight
23 Sep - 01:22:56 10° SW 01:26:10 49° SE 01:29:24 10° ENE night (unlit)
23 Sep - 03:00:07 10° W 03:03:01 27° NNW 03:05:55 10° NE visible
23 Sep - 04:38:37 10° NW 04:40:33 15° N 04:42:30 10° NNE visible
23 Sep - 06:15:34 10° NW 06:18:12 21° NNE 06:20:49 10° ENE daylight
23 Sep - 07:51:55 10° NW 07:55:15 86° SW 07:58:34 10° SE daylight
24 Sep - 00:34:26 10° SSW 00:37:19 28° SE 00:40:12 10° ENE night (unlit)
24 Sep - 02:10:47 10° W 02:13:56 38° NNW 02:17:05 10° NE night (unlit)
24 Sep - 03:49:14 10° NW 03:51:20 16° N 03:53:26 10° NNE visible
24 Sep - 05:26:42 10° NNW 05:29:01 17° NNE 05:31:20 10° ENE visible
24 Sep - 07:02:59 10° NW 07:06:16 56° NNE 07:09:32 10° ESE daylight
24 Sep - 08:40:23 10° W 08:42:41 18° SW 08:44:58 10° S daylight
24 Sep - 23:46:22 10° S 23:48:29 16° SE 23:50:37 10° E night (unlit)
25 Sep - 01:21:34 10° WSW 01:24:52 61° NNW 01:28:10 10° NE night (unlit)
25 Sep - 02:59:43 10° WNW 03:02:05 18° NNW 03:04:27 10° NNE visible
25 Sep - 04:37:42 10° NNW 04:39:46 15° N 04:41:50 10° NE visible
25 Sep - 06:14:05 10° NW 06:17:11 36° NNE 06:20:17 10° E visible
25 Sep - 07:50:52 10° WNW 07:53:50 30° SW 07:56:48 10° SSE daylight
26 Sep - 00:32:31 10° SW 00:35:50 79° SE 00:39:10 10° ENE night (unlit)
26 Sep - 02:10:10 10° WNW 02:12:51 22° NNW 02:15:31 10° NE night (unlit)
26 Sep - 03:48:32 10° NW 03:50:28 14° N 03:52:24 10° NE visible
26 Sep - 05:25:10 10° NW 05:28:01 26° NNE 05:30:52 10° E visible
26 Sep - 07:01:38 10° WNW 07:04:54 55° SW 07:08:09 10° SE daylight
26 Sep - 23:43:39 10° SSW 23:46:49 43° SE 23:50:00 10° ENE night (unlit)
27 Sep - 01:20:39 10° W 01:23:37 29° NNW 01:26:35 10° NE night (unlit)
27 Sep - 02:59:09 10° NW 03:01:07 15° N 03:03:05 10° NNE visible
27 Sep - 04:36:12 10° NNW 04:38:46 20° NNE 04:41:18 10° ENE visible
27 Sep - 06:12:31 10° NW 06:15:51 84° NE 06:19:11 10° SE visible
27 Sep - 07:50:59 10° WSW 07:52:05 11° SW 07:53:10 10° SSW daylight
27 Sep - 22:55:05 10° S 22:57:50 24° SE 23:00:36 10° ENE night (unlit)
28 Sep - 00:31:12 10° WSW 00:34:24 42° NNW 00:37:35 10° NE night (unlit)
28 Sep - 02:09:35 10° NW 02:11:45 16° N 02:13:54 10° NNE night (unlit)
28 Sep - 03:47:10 10° NNW 03:49:25 17° NNE 03:51:40 10° NE visible
28 Sep - 05:23:27 10° NW 05:26:43 50° NNE 05:29:57 10° ESE visible
28 Sep - 07:00:40 10° W 07:03:11 20° SW 07:05:40 10° S daylight
28 Sep - 22:07:04 10° SSE 22:08:53 14° SE 22:10:43 10° E night (unlit)
28 Sep - 23:41:53 10° WSW 23:45:12 69° NNW 23:48:32 10° NE night (unlit)
